Location: Gollag?dem
(16.8053°N, 80.8024°E)
Time: 18:18:03
(UTC+00:00)

Cosmos 883 Rocket - Pass Details

Date: 13 August 2020
Orbit: 951 x 995 km, 83.0° (Epoch: 17 September)

Event Time Altitude Azimuth Distance (km) Brightness Sun altitude
Exits shadow 22:24:23 68° 235° (SW) 1,035 4.3 -26.8°
Maximum altitude 22:24:56 73° 274° (W) 1,012 4.3 -26.7°
Drops below altitude 10° 22:31:10 10° 359° (N) 2,725 7.1 -25.4°
Sets 22:33:42 0° 1° (N) 3,680 7.9 -24.8°
